Location: Central Falls
(41.8900°N, 71.3929°W)
Time: 11:19:54
(UTC+00:00)

A-11 Canister half - Pass Details

Date: 12 December 2023
Orbit: 1526 x 1682 km, 47.3° (Epoch: 20 February)

Event Time Altitude Azimuth Distance (km) Brightness Sun altitude
Rises 04:05:43 0° 297° (WNW) 4,929 11.9 -69.9°
Enters shadow 04:06:21 - 296° (WNW) 4,734 11.7 -70.0°
Reaches altitude 10° 04:08:57 10° 294° (WNW) 3,928 - -70.1°
Maximum altitude 04:18:49 64° 217° (SW) 1,790 - -70.7°
Drops below altitude 10° 04:28:23 10° 139° (SE) 3,808 - -71.0°
Sets 04:31:27 0° 136° (SE) 4,770 - -71.1°
